Погода в Биограде-на-Мору

Хорватия     43°56′26″N   15°26′58″E
В апреле 2022 года жителям России запретили посещать сайт meteo.paraplan.net по решению Генеральной прокуратуры. Аудитория сайта уменьшилась в 10 раз. Владельцы сайта не видят смысла в поддержке погодного сервера в таких условиях. Сайт будет закрыт в октябре.
темп.,
°C
ветер,
м/с
пор.,
м/с
влажн.,
%
обл.,
%
осадки,
мм/ч
давл.,
гПа
погр.,
м
25 сентября, вс
вс2523:00+17вюв71151100 0.0 1017569
02:00+17вюв81359100 0.0 1016829
05:00+17юв91460100 0.1 1015986
08:00+16юв111482100 1.4 1015996
11:00+15вюв81389100 9.3 1015840
14:00+17юв81081100 10.4 1014747
17:00+16вюв5891100 0.9 1013444
20:00+18ююв8119099 3.7 1013706
26 сентября, пн
пн2623:00+18юв61187100 1.2 1013577
02:00+17юв61292100 4.2 1012762
05:00+18юв6109226 2.8 1010414
08:00+18вюв4893100 10.9 1009336
11:00+20ююв6883100 7.6 1009487
14:00+17сз4596100 14.3 1008226
17:00+16св2396100 12.5 1006167
20:00+16вюв3495100 16.3 1006200
27 сентября, вт
вт2723:00+16всв239349 2.7 1005100
02:00+14св11921 3.4 100415
05:00+14ссв2288100 0.1 100315
08:00+16св228093 0.1 100235
11:00+17ссв127584 0.6 100395
14:00+20зсз226068 2.5 1003455
17:00+18ююз127174 1.1 100261
20:00+17вюв227485 2.6 100349
28 сентября, ср
ср2823:00+16вюв358353 1.1 100497
02:00+15в228498 2.0 100350
05:00+14ссв238886 0.6 100392
08:00+16всв22805 0.9 100379
11:00+20юв3363100 0.1 1003701
14:00+20ю5563100 0.3 1003905
17:00+20ю3466100 0.1 1002434
20:00+17юв5981100 0.3 1002282
29 сентября, чт
чт2923:00+17в368047 0.4 1002193
02:00+16в119290 2.7 100331
05:00+16в2289100 0.4 100218
08:00+16вюв2489100 2.1 1003114
11:00+21ююв576911 2.5 1004629
14:00+22ююв7761100 4.1 1004877
17:00+21ююв697097 1.4 1005494
20:00+19ююв81178100 4.6 1006457